This is the latest recevied weather packets stored in our database for station/object DL9GRB-13. If no packets are shown the sender has not sent any weather packets the latest 10 day(s).
| Time | Temp. | Humidity | Pressure | Rain* | Wind** | Luminosity | Snow |
|---|---|---|---|---|---|---|---|
| 1777564746 | 18.33° C | 34% | 1028.9 hPa | 0 mm | - | 135 W/m² | - |
| 1777564566 | 18.33° C | 34% | 1029 hPa | 0 mm | - | 151 W/m² | - |
| 1777564386 | 18.33° C | 34% | 1029 hPa | 0 mm | - | 168 W/m² | - |
| 1777564206 | 18.33° C | 35% | 1029 hPa | 0 mm | - | 185 W/m² | - |
| 1777564026 | 18.33° C | 36% | 1029.1 hPa | 0 mm | - | 204 W/m² | - |
| 1777563846 | 18.33° C | 35% | 1029.2 hPa | 0 mm | - | 218 W/m² | - |
| 1777563666 | 18.33° C | 35% | 1029.1 hPa | 0 mm | - | 234 W/m² | - |
| 1777563486 | 18.33° C | 36% | 1029.2 hPa | 0 mm | - | 247 W/m² | - |
| 1777563306 | 18.33° C | 35% | 1029.1 hPa | 0 mm | - | 262 W/m² | - |
| 1777563126 | 18.33° C | 35% | 1029.2 hPa | 0 mm | - | 271 W/m² | - |
| 1777562946 | 17.78° C | 35% | 1029.1 hPa | 0 mm | - | 284 W/m² | - |
| 1777562766 | 17.78° C | 35% | 1029.2 hPa | 0 mm | - | 296 W/m² | - |
| 1777562586 | 17.78° C | 35% | 1029.2 hPa | 0 mm | - | 304 W/m² | - |
| 1777562406 | 17.78° C | 35% | 1029.3 hPa | 0 mm | - | 314 W/m² | - |
| 1777562226 | 18.33° C | 35% | 1029.1 hPa | 0 mm | - | 322 W/m² | - |
| 1777562046 | 17.78° C | 35% | 1029.4 hPa | 0 mm | - | 332 W/m² | - |
| 1777561866 | 18.33° C | 35% | 1029.4 hPa | 0 mm | - | 343 W/m² | - |
| 1777561686 | 18.33° C | 35% | 1029.4 hPa | 0 mm | - | 349 W/m² | - |
| 1777561506 | 18.33° C | 35% | 1029.5 hPa | 0 mm | - | 357 W/m² | - |
| 1777561326 | 18.33° C | 35% | 1029.4 hPa | 0 mm | - | 366 W/m² | - |
| 1777561146 | 18.33° C | 35% | 1029.5 hPa | 0 mm | - | 374 W/m² | - |
| 1777560966 | 18.33° C | 35% | 1029.3 hPa | 0 mm | - | 383 W/m² | - |
| 1777560786 | 17.78° C | 35% | 1029.4 hPa | 0 mm | - | 389 W/m² | - |
| 1777560606 | 17.78° C | 35% | 1029.5 hPa | 0 mm | - | 400 W/m² | - |
| 1777560426 | 17.78° C | 35% | 1029.6 hPa | 0 mm | - | 412 W/m² | - |
* Rain latest hour (hover to see other rain measurements)
** Current wind speed in m/s (hover to see current wind gust speed)